Flag for Germany Weather past 2 weeks in Maintal, Hesse, Germany

Now
72 °F

Partly sunny.


Feels Like: 74 °F
Forecast: 52 / 65 °F
Wind: 2 mph from South

Location: Frankfurt / M-Flughafen

Current Time: Sep 20, 2014 at 8:14:10 PM

Latest Report: Sep 20, 2014 at 3:00 PM


Visibility: 14 mi

Pressure: 29.93 "Hg

Humidity: 75%

Dew point: 64 °F

Location of MaintalLocation

Historic Weather in Maintal — Graph

°F

Maintal temperature yesterday

Maximum temperature yesterday: 74 °F (at 6:00 PM)
Minimum temperature yesterday: 61 °F (at 5:00 AM)
Average temperature yesterday: 67 °F

Past Weeks' High & Low Weather Summary

 TemperatureHumidityPressure
High79 °F (Sep 6, 4:00 PM)97% (Sep 6, 7:00 AM)30.19 "Hg (Sep 6, 7:00 AM)
Low47 °F (Sep 11, 4:00 AM)43% (Sep 9, 6:00 PM)29.85 "Hg (Sep 6, 6:00 PM)
Average64 °F78%30.00 "Hg
* Reported Sep 5 3:00 PM — Sep 20 3:00 PM, Maintal, Weather by CustomWeather, © 2014

Note: Actual official high and low records may vary slightly from our data, if they occured in-between our weather recording intervals... More about our weather records

Advertising

Maintal weather history for previous 24 hours

 ConditionsComfort  
Time TempWeatherWind HumidityBarometerVisibility
3:00 PM
Sep 20
72 °FPartly sunny.2 mph75%29.93 "Hg14 mi
2:00 PM72 °FPartly sunny.5 mph74%29.96 "Hg16 mi
1:00 PM72 °FPartly sunny.3 mph76%29.96 "Hg16 mi
12:00 PM68 °FPartly sunny.3 mph86%29.97 "Hg12 mi
11:00 AM65 °FPartly sunny.3 mph89%29.97 "Hg11 mi
10:00 AM64 °FPartly sunny.2 mph93%29.96 "Hg9 mi
9:00 AM62 °FPartly sunny.3 mph96%29.96 "Hg7 mi
8:00 AM61 °FScattered clouds.2 mph97%29.96 "Hg7 mi
7:00 AM62 °FFog.2 mph95%29.95 "Hg10 mi
6:00 AM62 °FPassing clouds.2 mph93%29.94 "Hg14 mi
5:00 AM61 °FOvercast.1 mph96%29.95 "Hg16 mi
4:00 AM60 °FPassing clouds.1 mph95%29.95 "Hg16 mi
3:00 AM62 °FPassing clouds.1 mph95%29.95 "Hg19 mi
2:00 AM62 °FPassing clouds.1 mph93%29.95 "Hg19 mi
1:00 AM64 °FPassing clouds.3 mph92%29.95 "Hg19 mi
12:00 AM63 °FPassing clouds.1 mph92%29.94 "Hg19 mi
10:00 PM
Sep 19
68 °FPassing clouds.2 mph84%29.93 "Hg25 mi
9:00 PM71 °FPassing clouds.2 mph77%29.92 "Hg28 mi
8:00 PM72 °FPassing clouds.2 mph77%29.90 "Hg28 mi
Weather by CustomWeather, © 2014

See weather overviewHow to use our weather pages